Location: Kalberh�ni
(46.4610°N, 7.2453°E)
Time: 17:33:35
(UTC+00:00)

Meteor 2-1 Rocket - Pass Details

Date: 01 November 2021
Orbit: 830 x 906 km, 81.3° (Epoch: 28 November)

Event Time Altitude Azimuth Distance (km) Brightness Sun altitude
Rises 18:41:16 0° 200° (SSW) 3,397 7.5 -25.4°
Reaches altitude 10° 18:43:43 10° 204° (SSW) 2,457 6.8 -25.9°
Maximum altitude 18:49:12 60° 284° (WNW) 956 4.6 -26.8°
Drops below altitude 10° 18:54:40 10° 4° (N) 2,449 6.6 -27.7°
Sets 18:57:07 0° 9° (N) 3,386 7.3 -28.2°
